Flag for U.S.A. Weather past 2 weeks in Louisville, Kentucky, U.S.A.

60 °F

Broken clouds.

Feels Like: 60 °F
Forecast: 37 / 60 °F
Wind: 13 mph from South

Location: Standiford Field

Current Time: Nov 25, 2015 at 6:11:42 PM

Latest Report: Nov 25, 2015 at 4:56 PM

Visibility: 10 mi

Pressure: 30.35 "Hg

Humidity: 39%

Dew point: 35 °F

Location of LouisvilleLocation

Historic Weather in Louisville — Graph


Louisville temperature yesterday

Maximum temperature yesterday: 59 °F (at 3:56 PM)
Minimum temperature yesterday: 34 °F (at 6:56 AM)
Average temperature yesterday: 46 °F

Past Weeks' High & Low Weather Summary

High66 °F (Nov 15, 1:56 PM)97% (Nov 18, 12:56 PM)30.45 "Hg (Nov 18, 12:56 PM)
Low27 °F (Nov 23, 1:56 AM)22% (Nov 20, 1:56 PM)29.59 "Hg (Nov 12, 3:56 AM)
Average49 °F57%30.15 "Hg
* Reported Nov 10 3:56 PM — Nov 25 3:56 PM, Louisville, Weather by CustomWeather, © 2015

Note: Actual official high and low records may vary slightly from our data, if they occured in-between our weather recording intervals... More about our weather records


Louisville weather history for previous 24 hours

Time TempWeatherWind HumidityBarometerVisibility
3:56 PM
Wed, Nov 25
60 °FPartly sunny.10 mph38%30.35 "Hg10 mi
2:56 PM61 °FPartly sunny.10 mph36%30.35 "Hg10 mi
1:56 PM61 °FPartly sunny.9 mph36%30.37 "Hg10 mi
12:56 PM59 °FPassing clouds.13 mph36%30.39 "Hg10 mi
11:56 AM57 °FPassing clouds.15 mph36%30.42 "Hg10 mi
10:56 AM49 °FPartly sunny.10 mph50%30.44 "Hg10 mi
9:56 AM47 °FScattered clouds.7 mph54%30.44 "Hg10 mi
8:56 AM43 °FBroken clouds.8 mph62%30.42 "Hg10 mi
7:56 AM39 °FBroken clouds.7 mph70%30.42 "Hg10 mi
6:56 AM41 °FPassing clouds.5 mph65%30.41 "Hg10 mi
5:56 AM42 °FPassing clouds.5 mph62%30.39 "Hg10 mi
4:56 AM42 °FPassing clouds.7 mph62%30.38 "Hg10 mi
3:56 AM40 °FPassing clouds.5 mph70%30.37 "Hg10 mi
2:56 AM44 °FPassing clouds.No wind60%30.36 "Hg10 mi
1:56 AM43 °FPassing clouds.5 mph62%30.35 "Hg10 mi
12:56 AM45 °FPassing clouds.7 mph58%30.35 "Hg10 mi
11:56 PM
Tue, Nov 24
46 °FPassing clouds.6 mph58%30.34 "Hg10 mi
10:56 PM46 °FPassing clouds.6 mph61%30.35 "Hg10 mi
9:56 PM46 °FPassing clouds.6 mph61%30.35 "Hg10 mi
8:56 PM49 °FPartly cloudy.6 mph55%30.34 "Hg10 mi
7:56 PM51 °FPartly cloudy.8 mph50%30.34 "Hg10 mi
6:56 PM53 °FPassing clouds.8 mph47%30.33 "Hg10 mi
Weather by CustomWeather, © 2015

See weather overviewHow to use our weather pages